#timestamp,LO_Frequency,Hit,StdDev 
1562972415.2,286047001.9,N
1562972435.9,286047002.2,N
1562972455.7,286047002.4,N
1562972475.6,286047000.5,N
1562972495.4,286047000.6,N
1562972515.2,286046999.7,N
1562972535.1,286047002.2,N
1562972536.0,286047002.2,N
1562972555.8,286046999.8,N
1562972575.7,286047000.6,N
1562972595.5,286047001.0,N
1562972615.3,286047002.7,N
1562972635.2,286047002.4,N
1562972655.0,286046998.5,N
1562972655.9,286046998.5,N
1562972675.8,286046999.3,N
1562972695.6,286046997.0,N
1562972715.4,286047001.2,N
1562972735.3,286047001.2,N
1562972755.1,286046998.2,N
1562972775.8,286047002.3,N
1562972795.7,286047000.4,N
1562972815.5,286046998.2,N
1562972835.4,286047000.2,N
1562972855.2,286047001.9,N
1562972875.0,286046999.7,N
1562972875.9,286046999.7,N
1562972895.8,286047001.9,N
1562972915.6,286047001.9,N
1562972935.5,286047002.0,N
1562972955.3,286047001.9,N
1562972975.1,286047002.2,N
1562972995.9,286047001.8,N
1562973015.7,286047003.7,N
1562973035.6,286047003.1,N
1562973055.4,286047003.5,N
1562973075.2,286047002.5,N
1562973095.1,286047002.6,N
1562973096.0,286047002.6,N
1562973115.8,286047000.3,N
1562973135.6,286047000.2,N
1562973155.5,286047001.0,N
1562973175.3,286047002.4,N
1562973195.2,286047000.7,N
1562973215.9,286047001.1,N
1562973235.7,286046999.7,N
1562973255.6,286046999.7,N
1562973275.4,286047000.2,N
1562973295.3,286046998.7,N
1562973315.1,286046998.2,N
1562973335.8,286046998.4,N
1562973355.7,286046998.2,N
1562973405.6,286047002.0,E
1562973415.5,286046999.8,N
1562973435.3,286047002.2,P
1562973455.2,286047002.7,N
1562973475.6,286047000.9,N
1562973495.4,286047000.9,N
1562973515.3,286047002.1,N
1562973535.1,286047001.8,N
1562973555.9,286047000.5,N
1562973575.7,286046999.9,N
1562973595.5,286047004.4,Y
1562973615.4,286046999.8,P
1562973635.2,286047000.1,N
1562973655.1,286047002.4,P
1562973656.0,286047002.4,N
1562973675.8,286047000.1,N
1562973695.6,286047002.2,N
1562973715.5,286047002.3,N
1562973735.3,286047001.1,N
1562973755.2,286046999.7,N
1562973775.9,286047000.7,N
1562973795.7,286046999.9,N
1562973815.6,286046999.8,N
1562973835.4,286047002.6,N
1562973855.3,286047002.4,N
1562973875.1,286047004.4,Y
1562973876.0,286047004.4,P
1562973895.8,286047002.0,N
1562973915.7,286047000.9,N
1562973935.5,286046998.8,N
1562973955.4,286047001.1,N
1562973975.2,286047000.2,N
1562973995.0,286047000.9,N
1562973995.9,286047000.9,N
1562974015.8,286047000.4,N
1562974035.6,286047000.4,N
1562974055.5,286047002.7,N
1562974075.3,286047002.3,N
1562974095.1,286047000.2,N
1562974115.9,286047000.0,N
1562974135.7,286046999.8,N
1562974155.6,286047002.5,N
1562974175.4,286047002.3,N
1562974195.2,286047002.8,N
1562974215.1,286047000.3,N
1562974216.0,286047000.3,N
1562974235.8,286047000.5,N
1562974255.6,286047001.0,N
1562974275.5,286047001.0,N
1562974295.3,286047001.1,N
1562974315.2,286046998.3,N
1562974335.9,286046996.6,N
1562974355.7,286046996.5,N
1562974375.6,286046996.5,N
1562974395.4,286046998.8,N
1562974415.3,286046998.4,N
1562974435.1,286046999.8,N
1562974436.0,286046999.8,N
1562974455.8,286046998.2,N
1562974475.7,286046996.7,N
1562974495.5,286046997.2,N
1562974515.3,286046995.1,N
1562974535.2,286046997.1,N
1562974555.0,286046997.5,N
1562974555.9,286046997.5,N
1562974575.8,286046997.3,N
1562974595.6,286046997.1,N
1562974615.4,286046999.2,N
1562974635.3,286046999.3,N
1562974655.1,286046999.4,N
1562974675.9,286046998.9,N
1562974695.7,286046998.6,N
1562974715.5,286046998.3,N
1562974735.4,286047000.7,N
1562974755.2,286047001.1,N
1562974775.1,286047000.5,N
1562974776.0,286047000.5,N
1562974795.8,286047000.8,N
1562974815.6,286046999.9,N
1562974835.5,286047000.3,N
1562974855.3,286047000.7,N
1562974875.1,286046998.1,N
1562974895.9,286047000.3,N
1562974915.7,286047001.1,N
1562974935.6,286046998.1,N
1562974955.4,286046998.5,N
1562974975.9,286047000.8,N
1562974995.7,286046996.8,N
1562975015.6,286046996.0,N
1562975035.4,286046995.7,N
1562975055.3,286046995.2,N
1562975075.1,286046995.5,N
1562975076.0,286046995.5,N
1562975095.8,286046997.4,N
1562975115.7,286046995.4,N
1562975135.5,286046993.3,Y
1562975155.4,286046998.0,P
1562975175.2,286046995.0,P
1562975195.0,286046997.7,N
1562975195.9,286046997.7,N
1562975215.8,286046995.5,Y
1562975235.6,286046997.2,P
1562975255.5,286046996.2,P
1562975275.3,286046996.1,P
1562975295.1,286046995.7,Y
1562975315.9,286047000.7,P
1562975335.7,286047002.8,N
1562975355.5,286047001.4,N
1562975375.4,286047001.3,N
1562975395.2,286047003.8,N
1562975415.1,286047001.6,N
1562975416.0,286047001.6,N
1562975435.8,286047004.3,N
1562975485.7,286046998.7,E
1562975495.6,286047000.6,N
1562975515.4,286047002.5,P
1562975535.3,286047003.8,P
1562975555.1,286047002.5,N
1562975575.8,286047002.7,N
1562975595.7,286047000.2,N
1562975615.5,286046998.5,N
1562975635.9,286047000.1,N
1562975655.7,286047004.4,N
1562975675.6,286047004.2,N
1562975695.4,286047003.5,N
1562975715.3,286047003.5,N
1562975735.1,286047004.0,N
1562975736.0,286047004.0,N
1562975755.8,286047001.8,N
1562975775.7,286047001.7,N
1562975795.5,286047003.1,N
1562975815.3,286047004.0,N
1562975835.2,286047002.1,N
1562975855.0,286046999.8,N
1562975855.9,286046999.8,N
1562975875.8,286047001.9,N
1562975895.6,286047003.1,N
1562975915.4,286047004.9,N
1562975935.3,286047005.0,N
1562975955.1,286047004.8,N
1562975975.9,286047005.4,Y
1562975995.7,286047004.0,P
